When you browse on this site, cookies collect data to enhance your experience and personalize the content and advertising you see.
Visit our Privacy Policy to learn more. By continuing to use the site, you agree to this use of cookies and data.
  • In Romania
  • List of Countries
  • For 7 days
  • Water Temperature
  • Satellite Maps
  • Weather Map
  • Weather Widgets
  • user-avatar
    Login

    Hourly Weather Ploscha

    Today, 20 March, Wednesday

    Time Temperature Precipitation Wind Pressure Humidity
    00:00 -1°C° 0 mm 2 mps 748 mmHg 89%
    01:00 -1°C° 0 mm 2 mps 749 mmHg 91%
    02:00 -2°C° 0 mm 2 mps 749 mmHg 94%
    03:00 -2°C° 0 mm 2 mps 749 mmHg 93%
    04:00 -2°C° 0 mm 3 mps 749 mmHg 93%
    05:00 -1°C° 0 mm 3 mps 750 mmHg 93%
    06:00 -1°C° 0 mm 3 mps 750 mmHg 89%
    07:00 0°C° 0 mm 3 mps 750 mmHg 86%
    08:00 -1°C° 0 mm 4 mps 751 mmHg 82%
    09:00 0°C° 0 mm 3 mps 751 mmHg 79%
    10:00 +1°C° 0 mm 3 mps 751 mmHg 76%
    11:00 +1°C° 0 mm 3 mps 751 mmHg 72%
    12:00 +1°C° 0 mm 3 mps 751 mmHg 71%
    13:00 +1°C° 0 mm 3 mps 752 mmHg 70%
    14:00 +1°C° 0 mm 3 mps 752 mmHg 69%
    15:00 +1°C° 0 mm 3 mps 752 mmHg 71%
    16:00 +1°C° 0 mm 3 mps 752 mmHg 72%
    17:00 0°C° 0 mm 3 mps 751 mmHg 73%
    18:00 0°C° 0 mm 3 mps 751 mmHg 75%
    19:00 +1°C° 0 mm 2 mps 751 mmHg 77%
    20:00 -1°C° 0 mm 2 mps 751 mmHg 79%
    21:00 -1°C° 0 mm 3 mps 750 mmHg 79%
    22:00 -1°C° 0 mm 3 mps 750 mmHg 79%
    23:00 -1°C° 0 mm 3 mps 749 mmHg 79%

    Tomorrow, 21 March, Thursday

    Time Temperature Precipitation Wind Pressure Humidity
    00:00 0°C° 0.4 mm 3 mps 748 mmHg 81%
    01:00 -1°C° 0.4 mm 4 mps 748 mmHg 83%
    02:00 -1°C° 0.4 mm 4 mps 747 mmHg 86%
    03:00 -1°C° 0.6 mm 4 mps 747 mmHg 87%
    04:00 0°C° 0.6 mm 4 mps 747 mmHg 89%
    05:00 0°C° 0.6 mm 4 mps 747 mmHg 90%
    06:00 0°C° 0 mm 4 mps 747 mmHg 89%
    07:00 0°C° 0 mm 4 mps 747 mmHg 87%
    08:00 0°C° 0 mm 4 mps 748 mmHg 85%
    09:00 +1°C° 0 mm 4 mps 748 mmHg 83%
    10:00 +1°C° 0 mm 4 mps 749 mmHg 81%
    11:00 +3°C° 0 mm 4 mps 749 mmHg 79%
    12:00 +3°C° 0 mm 4 mps 749 mmHg 76%
    13:00 +4°C° 0 mm 3 mps 749 mmHg 73%
    14:00 +5°C° 0 mm 3 mps 749 mmHg 71%
    15:00 +5°C° 0 mm 3 mps 749 mmHg 72%
    16:00 +6°C° 0 mm 2 mps 749 mmHg 74%
    17:00 +5°C° 0 mm 2 mps 749 mmHg 76%
    18:00 +4°C° 0 mm 2 mps 749 mmHg 79%
    19:00 +3°C° 0 mm 2 mps 749 mmHg 83%
    20:00 +2°C° 0 mm 2 mps 749 mmHg 86%
    21:00 +2°C° 0 mm 2 mps 749 mmHg 87%
    22:00 +2°C° 0 mm 2 mps 748 mmHg 89%
    23:00 +2°C° 0 mm 2 mps 748 mmHg 90%

    Day after tomorrow, 22 March, Friday

    Time Temperature Precipitation Wind Pressure Humidity
    00:00 +2°C° 0.2 mm 2 mps 748 mmHg 91%
    01:00 +3°C° 0.2 mm 2 mps 747 mmHg 93%
    02:00 +3°C° 0.2 mm 2 mps 747 mmHg 95%
    03:00 +2°C° 0.5 mm 3 mps 746 mmHg 95%
    04:00 +2°C° 0.5 mm 3 mps 746 mmHg 96%
    05:00 +3°C° 0.5 mm 3 mps 745 mmHg 96%
    06:00 +3°C° 0.3 mm 3 mps 745 mmHg 95%
    07:00 +4°C° 0.3 mm 4 mps 746 mmHg 93%
    08:00 +4°C° 0.3 mm 4 mps 746 mmHg 92%
    09:00 +5°C° 0 mm 4 mps 746 mmHg 83%
    10:00 +5°C° 0 mm 5 mps 747 mmHg 74%
    11:00 +5°C° 0 mm 5 mps 747 mmHg 65%
    12:00 +6°C° 0 mm 5 mps 747 mmHg 60%
    13:00 +6°C° 0 mm 5 mps 747 mmHg 54%
    14:00 +6°C° 0 mm 5 mps 747 mmHg 49%
    15:00 +5°C° 0 mm 5 mps 747 mmHg 50%
    16:00 +5°C° 0 mm 4 mps 748 mmHg 52%
    17:00 +4°C° 0 mm 4 mps 748 mmHg 53%
    18:00 +3°C° 0 mm 4 mps 748 mmHg 58%
    19:00 +2°C° 0 mm 3 mps 749 mmHg 63%
    20:00 +1°C° 0 mm 3 mps 749 mmHg 69%
    21:00 0°C° 0 mm 3 mps 749 mmHg 72%
    22:00 -1°C° 0 mm 3 mps 749 mmHg 76%
    23:00 -1°C° 0 mm 2 mps 749 mmHg 80%

    23 March, Saturday

    Time Temperature Precipitation Wind Pressure Humidity
    00:00 -2°C° 0 mm 2 mps 750 mmHg 82%
    01:00 -2°C° 0 mm 2 mps 750 mmHg 85%
    02:00 -1°C° 0 mm 1 mps 750 mmHg 87%
    03:00 -1°C° 0 mm 1 mps 750 mmHg 88%
    04:00 -1°C° 0 mm 1 mps 749 mmHg 88%
    05:00 -1°C° 0 mm 1 mps 749 mmHg 88%
    06:00 0°C° 0 mm 1 mps 749 mmHg 83%
    07:00 +1°C° 0 mm 1 mps 749 mmHg 78%
    08:00 +2°C° 0 mm 1 mps 748 mmHg 73%
    09:00 +2°C° 0 mm 2 mps 747 mmHg 68%
    10:00 +3°C° 0 mm 3 mps 746 mmHg 64%
    11:00 +4°C° 0 mm 3 mps 746 mmHg 60%
    12:00 +4°C° 0.1 mm 4 mps 745 mmHg 68%
    13:00 +5°C° 0.1 mm 4 mps 744 mmHg 76%
    14:00 +5°C° 0.1 mm 4 mps 743 mmHg 85%
    15:00 +5°C° 0.3 mm 5 mps 742 mmHg 87%
    16:00 +6°C° 0.3 mm 5 mps 742 mmHg 89%
    17:00 +6°C° 0.3 mm 5 mps 741 mmHg 91%
    18:00 +5°C° 0.1 mm 5 mps 741 mmHg 83%
    19:00 +3°C° 0.1 mm 5 mps 742 mmHg 76%
    20:00 +2°C° 0.1 mm 5 mps 742 mmHg 69%
    21:00 +1°C° 0 mm 5 mps 742 mmHg 69%
    22:00 0°C° 0 mm 5 mps 743 mmHg 69%
    23:00 -1°C° 0 mm 4 mps 743 mmHg 70%

    24 March, Sunday

    Time Temperature Precipitation Wind Pressure Humidity
    00:00 -1°C° 0 mm 4 mps 743 mmHg 70%
    01:00 -2°C° 0 mm 4 mps 743 mmHg 71%
    02:00 -2°C° 0 mm 4 mps 743 mmHg 72%
    03:00 -2°C° 0 mm 4 mps 742 mmHg 72%
    04:00 -2°C° 0 mm 5 mps 742 mmHg 73%
    05:00 -2°C° 0 mm 5 mps 742 mmHg 73%
    06:00 -1°C° 0 mm 5 mps 742 mmHg 69%
    07:00 -2°C° 0 mm 6 mps 742 mmHg 65%
    08:00 -1°C° 0 mm 7 mps 742 mmHg 62%
    09:00 -1°C° 0 mm 7 mps 743 mmHg 60%
    10:00 -1°C° 0 mm 7 mps 743 mmHg 58%
    11:00 -1°C° 0 mm 7 mps 743 mmHg 56%
    12:00 -1°C° 0 mm 7 mps 743 mmHg 54%
    13:00 0°C° 0 mm 7 mps 743 mmHg 53%
    14:00 0°C° 0 mm 7 mps 743 mmHg 52%
    15:00 +1°C° 0 mm 6 mps 744 mmHg 48%
    16:00 +1°C° 0 mm 6 mps 744 mmHg 45%
    17:00 +1°C° 0 mm 5 mps 744 mmHg 41%
    18:00 0°C° 0 mm 5 mps 744 mmHg 45%
    19:00 -1°C° 0 mm 4 mps 745 mmHg 48%
    20:00 -2°C° 0 mm 4 mps 745 mmHg 52%
    21:00 -2°C° 0 mm 4 mps 745 mmHg 56%
    22:00 -2°C° 0 mm 3 mps 745 mmHg 61%
    23:00 -2°C° 0 mm 3 mps 745 mmHg 66%

    25 March, Monday

    Time Temperature Precipitation Wind Pressure Humidity
    00:00 -2°C° 0 mm 2 mps 745 mmHg 70%
    01:00 -3°C° 0 mm 2 mps 745 mmHg 74%
    02:00 -3°C° 0 mm 2 mps 744 mmHg 77%
    03:00 -3°C° 0 mm 2 mps 744 mmHg 75%
    04:00 -3°C° 0 mm 2 mps 743 mmHg 74%
    05:00 -3°C° 0 mm 2 mps 742 mmHg 72%
    06:00 -2°C° 0 mm 3 mps 742 mmHg 69%
    07:00 -1°C° 0 mm 3 mps 741 mmHg 65%
    08:00 -1°C° 0 mm 4 mps 740 mmHg 62%
    09:00 0°C° 0 mm 4 mps 740 mmHg 56%
    10:00 +1°C° 0 mm 5 mps 739 mmHg 50%
    11:00 +2°C° 0 mm 5 mps 738 mmHg 44%
    12:00 +3°C° 0 mm 5 mps 737 mmHg 46%
    13:00 +3°C° 0 mm 6 mps 736 mmHg 47%
    14:00 +3°C° 0 mm 6 mps 735 mmHg 49%
    15:00 +3°C° 0.1 mm 5 mps 734 mmHg 54%
    16:00 +2°C° 0.1 mm 5 mps 733 mmHg 58%
    17:00 +3°C° 0.1 mm 4 mps 733 mmHg 63%
    18:00 +1°C° 0.6 mm 4 mps 732 mmHg 68%
    19:00 +2°C° 0.6 mm 3 mps 732 mmHg 73%
    20:00 +1°C° 0.6 mm 3 mps 731 mmHg 79%
    21:00 +1°C° 0.6 mm 3 mps 731 mmHg 82%
    22:00 0°C° 0.6 mm 3 mps 731 mmHg 85%
    23:00 0°C° 0.6 mm 3 mps 730 mmHg 88%
    Show more